Salem, OR

2:17 PM PDT on April 24, 2018 (GMT -0700)
McNary

Weather History for KSLE - August, 2013

Change the Weather History Date:

Sunday, August 18, 2013

  Actual Average Record
Temperature  
Mean Temperature 72 °F 68 °F  
Max Temperature 87 °F 82 °F 102 °F (2016)
Min Temperature 56 °F 53 °F 41 °F (1973)
Degree Days  
Heating Degree Days 0 1  
Month to date heating degree days 2 15  
Since 1 June heating degree days 83 175  
Since 1 July heating degree days 4 45  
Cooling Degree Days 7 3  
Month to date cooling degree days 108 69  
Year to date cooling degree days 347 215  
Since 1 June cooling degree days 337 206  
Growing Degree Days 21 (Base 50)    
Moisture  
Dew Point 56 °F    
Average Humidity 64    
Maximum Humidity 93    
Minimum Humidity 35    
Precipitation  
Precipitation 0.00 in 0.02 in 0.51 in (1926)
Month to date precipitation 0.02 0.19  
Year to date precipitation 11.63 21.74  
Snow  
Snow 0.00 in - - ()
Month to date snowfall 0.0  
Since 1 June snowfall 0.0  
Snow Depth 0.00 in    
Sea Level Pressure  
Sea Level Pressure 30.08 in    
Wind  
Wind Speed 3 mph (NNW)    
Max Wind Speed 12 mph    
Max Gust Speed 17 mph    
Visibility 10 miles    
Events      
T = Trace of Precipitation, MM = Missing Value Source: NWS Daily Summary

Daily Weather History Graph

Daily Weather History Graph

Search for Another Location

Airport or City:

Astronomy

Aug. 18, 2013 Rise Set
Actual Time 6:17 AM PDT 8:12 PM PDT
Civil Twilight 5:46 AM PDT 8:44 PM PDT
Nautical Twilight 5:07 AM PDT 9:22 PM PDT
Astronomical Twilight 4:25 AM PDT 10:04 PM PDT
Moon 6:25 PM PDT (8/18) 3:30 AM PDT (8/18)
Length of Visible Light 14h 57m
Length of Day
13h 54m
Waxing Gibbous, 93% of the Moon is Illuminated
Aug 18
Waxing Gibbous
Aug 20
Full
Aug 28
Last Quarter
Sep 5
New
Sep 12
First Quarter

Hourly Weather History & Observations

Time (PDT) Temp. Heat Index Dew Point Humidity Pressure Visibility Wind Dir Wind Speed Gust Speed Precip Events Conditions
12:56 AM 63.0 °F - 57.9 °F 84% 30.09 in 10.0 mi WNW 3.5 mph - N/A   Clear
1:56 AM 60.1 °F - 55.9 °F 86% 30.09 in 10.0 mi Calm Calm - N/A   Clear
2:56 AM 60.1 °F - 55.9 °F 86% 30.09 in 10.0 mi Calm Calm - N/A   Clear
3:56 AM 59.0 °F - 55.9 °F 90% 30.10 in 10.0 mi Calm Calm - N/A   Clear
4:56 AM 57.9 °F - 55.0 °F 90% 30.10 in 10.0 mi Calm Calm - N/A   Clear
5:56 AM 57.0 °F - 54.0 °F 89% 30.11 in 10.0 mi Calm Calm - N/A   Clear
6:34 AM 57.2 °F - 53.6 °F 88% 30.12 in 10.0 mi Calm Calm - N/A   Mostly Cloudy
6:56 AM 57.0 °F - 54.0 °F 89% 30.12 in 10.0 mi Calm Calm - N/A   Mostly Cloudy
7:56 AM 61.0 °F - 57.0 °F 87% 30.13 in 10.0 mi NNW 3.5 mph - N/A   Overcast
8:56 AM 64.0 °F - 57.0 °F 78% 30.13 in 10.0 mi Calm Calm - N/A   Overcast
9:56 AM 68.0 °F - 57.9 °F 70% 30.13 in 10.0 mi Variable 4.6 mph - N/A   Overcast
10:20 AM 69.8 °F - 57.2 °F 64% 30.13 in 10.0 mi Variable 4.6 mph - N/A   Partly Cloudy
10:56 AM 72.0 °F - 57.0 °F 59% 30.12 in 10.0 mi North 8.1 mph - N/A   Clear
11:56 AM 75.0 °F - 57.0 °F 53% 30.12 in 10.0 mi Calm Calm - N/A   Clear
12:56 PM 77.0 °F - 57.0 °F 50% 30.11 in 10.0 mi Variable 4.6 mph - N/A   Clear
1:56 PM 80.1 °F 80.2 °F 55.9 °F 43% 30.09 in 10.0 mi NW 4.6 mph - N/A   Clear
2:56 PM 82.9 °F 82.0 °F 55.0 °F 38% 30.08 in 10.0 mi Calm Calm - N/A   Clear
3:56 PM 84.9 °F 83.6 °F 55.0 °F 36% 30.05 in 10.0 mi Variable 5.8 mph - N/A   Clear
4:56 PM 86.0 °F 84.5 °F 55.0 °F 35% 30.03 in 10.0 mi North 10.4 mph - N/A   Clear
5:56 PM 86.0 °F 84.7 °F 55.9 °F 36% 30.02 in 10.0 mi NNE 8.1 mph - N/A   Clear
6:56 PM 84.0 °F 83.0 °F 55.9 °F 38% 30.01 in 10.0 mi NNE 8.1 mph - N/A   Clear
7:56 PM 79.0 °F - 57.9 °F 48% 30.01 in 10.0 mi NW 9.2 mph - N/A   Clear
8:56 PM 75.0 °F - 57.0 °F 53% 30.03 in 10.0 mi NW 9.2 mph - N/A   Clear
9:56 PM 72.0 °F - 57.9 °F 61% 30.05 in 10.0 mi NW 3.5 mph - N/A   Clear
10:56 PM 69.1 °F - 57.9 °F 68% 30.06 in 10.0 mi NNW 5.8 mph - N/A   Clear
11:56 PM 66.9 °F - 57.9 °F 73% 30.06 in 10.0 mi NNW 5.8 mph - N/A   Clear